Location: Breitenfeld
(46.8500°N, 15.6333°E)
Time: 11:14:04
(UTC+00:00)

STARLINK-1227 - Pass Details

Date: 09 April 2020
Orbit: 375 x 384 km, 53.0° (Epoch: 26 May)

Event Time Altitude Azimuth Distance (km) Brightness Sun altitude
Rises 18:13:03 0° 299° (WNW) 2,268 8.9 -6.6°
Reaches altitude 10° 18:15:09 10° 305° (NW) 1,413 7.2 -6.9°
Maximum altitude 18:18:14 50° 22° (NNE) 499 3.4 -7.4°
Enters shadow 18:21:14 11° 100° (E) 1,378 5.0 -7.9°
